Year,Month,Day,Hour,Minute,Value (Times are PST for temperature in C)
2015,02,15,00,00,4.80
2015,02,15,00,01,4.70
2015,02,15,00,02,4.70
2015,02,15,00,03,4.70
2015,02,15,00,04,4.60
2015,02,15,00,05,4.60
2015,02,15,00,06,4.60
2015,02,15,00,07,4.50
2015,02,15,00,08,4.50
2015,02,15,00,09,4.40
2015,02,15,00,10,4.40
2015,02,15,00,11,4.40
2015,02,15,00,12,4.40
2015,02,15,00,13,4.40
2015,02,15,00,14,4.40
2015,02,15,00,15,4.40
2015,02,15,00,16,4.40
2015,02,15,00,17,4.40
2015,02,15,00,18,4.30
2015,02,15,00,19,4.30
2015,02,15,00,20,4.30
2015,02,15,00,21,4.30
2015,02,15,00,22,4.30
2015,02,15,00,23,4.30
2015,02,15,00,24,4.30
2015,02,15,00,25,4.20
2015,02,15,00,26,4.20
2015,02,15,00,27,4.20
2015,02,15,00,28,4.10
2015,02,15,00,29,4.10
2015,02,15,00,30,4.10
2015,02,15,00,31,4.00
2015,02,15,00,32,4.00
2015,02,15,00,33,3.90
2015,02,15,00,34,3.90
2015,02,15,00,35,3.90
2015,02,15,00,36,3.90
2015,02,15,00,37,3.80
2015,02,15,00,38,3.80
2015,02,15,00,39,3.80
2015,02,15,00,40,3.80
2015,02,15,00,41,3.80
2015,02,15,00,42,3.80
2015,02,15,00,43,3.90
2015,02,15,00,44,3.90
2015,02,15,00,45,3.90
2015,02,15,00,46,3.90
2015,02,15,00,47,3.90
2015,02,15,00,48,3.90
2015,02,15,00,49,3.90
2015,02,15,00,50,3.80
2015,02,15,00,51,3.80
2015,02,15,00,52,3.80
2015,02,15,00,53,3.80
2015,02,15,00,54,3.80
2015,02,15,00,55,3.70
2015,02,15,00,56,3.70
2015,02,15,00,57,3.70
2015,02,15,00,58,3.70
2015,02,15,00,59,3.70
2015,02,15,01,00,3.70
2015,02,15,01,01,3.70
2015,02,15,01,02,3.70
2015,02,15,01,03,3.70
2015,02,15,01,04,3.70
2015,02,15,01,05,3.70
2015,02,15,01,06,3.70
2015,02,15,01,07,3.70
2015,02,15,01,08,3.70
2015,02,15,01,09,3.70
2015,02,15,01,10,3.70
2015,02,15,01,11,3.70
2015,02,15,01,12,3.70
2015,02,15,01,13,3.70
2015,02,15,01,14,3.70
2015,02,15,01,15,3.70
2015,02,15,01,16,3.70
2015,02,15,01,17,3.70
2015,02,15,01,18,3.70
2015,02,15,01,19,3.70
2015,02,15,01,20,3.80
2015,02,15,01,21,3.80
2015,02,15,01,22,3.80
2015,02,15,01,23,3.80
2015,02,15,01,24,3.80
2015,02,15,01,25,3.80
2015,02,15,01,26,3.80
2015,02,15,01,27,3.80
2015,02,15,01,28,3.80
2015,02,15,01,29,3.80
2015,02,15,01,30,3.80
2015,02,15,01,31,3.80
2015,02,15,01,32,3.80
2015,02,15,01,33,3.80
2015,02,15,01,34,3.80
2015,02,15,01,35,3.80
2015,02,15,01,36,3.80
2015,02,15,01,37,3.80
2015,02,15,01,38,3.80
2015,02,15,01,39,3.80
2015,02,15,01,40,3.80
2015,02,15,01,41,3.90
2015,02,15,01,42,3.90
2015,02,15,01,43,3.90
2015,02,15,01,44,3.90
2015,02,15,01,45,3.90
2015,02,15,01,46,3.80
2015,02,15,01,47,3.80
2015,02,15,01,48,3.80
2015,02,15,01,49,3.80
2015,02,15,01,50,3.80
2015,02,15,01,51,3.80
2015,02,15,01,52,3.80
2015,02,15,01,53,3.80
2015,02,15,01,54,3.80
2015,02,15,01,55,3.80
2015,02,15,01,56,3.80
2015,02,15,01,57,3.90
2015,02,15,01,58,3.90
2015,02,15,01,59,3.90
2015,02,15,02,00,3.90
2015,02,15,02,01,4.00
2015,02,15,02,02,4.10
2015,02,15,02,03,4.10
2015,02,15,02,04,4.10
2015,02,15,02,05,4.10
2015,02,15,02,06,4.10
2015,02,15,02,07,4.10
2015,02,15,02,08,4.10
2015,02,15,02,09,4.10
2015,02,15,02,10,4.20
2015,02,15,02,11,4.20
2015,02,15,02,12,4.20
2015,02,15,02,13,4.20
2015,02,15,02,14,4.20
2015,02,15,02,15,4.20
2015,02,15,02,16,4.20
2015,02,15,02,17,4.20
2015,02,15,02,18,4.20
2015,02,15,02,19,4.20
2015,02,15,02,20,4.20
2015,02,15,02,21,4.20
2015,02,15,02,22,4.20
2015,02,15,02,23,4.20
2015,02,15,02,24,4.20
2015,02,15,02,25,4.20
2015,02,15,02,26,4.20
2015,02,15,02,27,4.20
2015,02,15,02,28,4.20
2015,02,15,02,29,4.20
2015,02,15,02,30,4.20
2015,02,15,02,31,4.20
2015,02,15,02,32,4.20
2015,02,15,02,33,4.20
2015,02,15,02,34,4.20
2015,02,15,02,35,4.20
2015,02,15,02,36,4.20
2015,02,15,02,37,4.10
2015,02,15,02,38,4.10
2015,02,15,02,39,4.10
2015,02,15,02,40,4.10
2015,02,15,02,41,4.10
2015,02,15,02,42,4.20
2015,02,15,02,43,4.20
2015,02,15,02,44,4.20
2015,02,15,02,45,4.20
2015,02,15,02,46,4.20
2015,02,15,02,47,4.20
2015,02,15,02,48,4.20
2015,02,15,02,49,4.20
2015,02,15,02,50,4.20
2015,02,15,02,51,4.20
2015,02,15,02,52,4.20
2015,02,15,02,53,4.20
2015,02,15,02,54,4.20
2015,02,15,02,55,4.20
2015,02,15,02,56,4.20
2015,02,15,02,57,4.20
2015,02,15,02,58,4.30
2015,02,15,02,59,4.30
2015,02,15,03,00,4.30
2015,02,15,03,01,4.30
2015,02,15,03,02,4.30
2015,02,15,03,03,4.20
2015,02,15,03,04,4.20
2015,02,15,03,05,4.20
2015,02,15,03,06,4.20
2015,02,15,03,07,4.20
2015,02,15,03,08,4.20
2015,02,15,03,09,4.20
2015,02,15,03,10,4.20
2015,02,15,03,11,4.20
2015,02,15,03,12,4.20
2015,02,15,03,13,4.20
2015,02,15,03,14,4.20
2015,02,15,03,15,4.20
2015,02,15,03,16,4.20
2015,02,15,03,17,4.20
2015,02,15,03,18,4.10
2015,02,15,03,19,4.10
2015,02,15,03,20,4.00
2015,02,15,03,21,4.00
2015,02,15,03,22,3.90
2015,02,15,03,23,3.80
2015,02,15,03,24,3.80
2015,02,15,03,25,3.80
2015,02,15,03,26,3.70
2015,02,15,03,27,3.70
2015,02,15,03,28,3.70
2015,02,15,03,29,3.70
2015,02,15,03,30,3.70
2015,02,15,03,31,3.70
2015,02,15,03,32,3.60
2015,02,15,03,33,3.60
2015,02,15,03,34,3.60
2015,02,15,03,35,3.60
2015,02,15,03,36,3.60
2015,02,15,03,37,3.50
2015,02,15,03,38,3.40
2015,02,15,03,39,3.40
2015,02,15,03,40,3.30
2015,02,15,03,41,3.30
2015,02,15,03,42,3.30
2015,02,15,03,43,3.30
2015,02,15,03,44,3.20
2015,02,15,03,45,3.20
2015,02,15,03,46,3.20
2015,02,15,03,47,3.20
2015,02,15,03,48,3.10
2015,02,15,03,49,3.10
2015,02,15,03,50,3.10
2015,02,15,03,51,3.10
2015,02,15,03,52,3.10
2015,02,15,03,53,3.10
2015,02,15,03,54,3.10
2015,02,15,03,55,3.10
2015,02,15,03,56,3.00
2015,02,15,03,57,3.00
2015,02,15,03,58,3.00
2015,02,15,03,59,3.00
2015,02,15,04,00,3.00
2015,02,15,04,01,3.00
2015,02,15,04,02,3.00
2015,02,15,04,03,2.90
2015,02,15,04,04,2.90
2015,02,15,04,05,2.90
2015,02,15,04,06,2.90
2015,02,15,04,07,2.90
2015,02,15,04,08,2.90
2015,02,15,04,09,2.90
2015,02,15,04,10,2.90
2015,02,15,04,11,2.80
2015,02,15,04,12,2.80
2015,02,15,04,13,2.80
2015,02,15,04,14,2.80
2015,02,15,04,15,2.70
2015,02,15,04,16,2.70
2015,02,15,04,17,2.70
2015,02,15,04,18,2.70
2015,02,15,04,19,2.70
2015,02,15,04,20,2.60
2015,02,15,04,21,2.60
2015,02,15,04,22,2.60
2015,02,15,04,23,2.60
2015,02,15,04,24,2.60
2015,02,15,04,25,2.60
2015,02,15,04,26,2.60
2015,02,15,04,27,2.50
2015,02,15,04,28,2.50
2015,02,15,04,29,2.40
2015,02,15,04,30,2.40
2015,02,15,04,31,2.40
2015,02,15,04,32,2.40
2015,02,15,04,33,2.40
2015,02,15,04,34,2.30
2015,02,15,04,35,2.30
2015,02,15,04,36,2.30
2015,02,15,04,37,2.30
2015,02,15,04,38,2.40
2015,02,15,04,39,2.40
2015,02,15,04,40,2.40
2015,02,15,04,41,2.40
2015,02,15,04,42,2.40
2015,02,15,04,43,2.40
2015,02,15,04,44,2.40
2015,02,15,04,45,2.40
2015,02,15,04,46,2.50
2015,02,15,04,47,2.50
2015,02,15,04,48,2.60
2015,02,15,04,49,2.60
2015,02,15,04,50,2.60
2015,02,15,04,51,2.60
2015,02,15,04,52,2.60
2015,02,15,04,53,2.50
2015,02,15,04,54,2.50
2015,02,15,04,55,2.50
2015,02,15,04,56,2.40
2015,02,15,04,57,2.40
2015,02,15,04,58,2.40
2015,02,15,04,59,2.40
2015,02,15,05,00,2.40
2015,02,15,05,01,2.50
2015,02,15,05,02,2.50
2015,02,15,05,03,2.50
2015,02,15,05,04,2.50
2015,02,15,05,05,2.50
2015,02,15,05,06,2.60
2015,02,15,05,07,2.60
2015,02,15,05,08,2.60
2015,02,15,05,09,2.70
2015,02,15,05,10,2.70
2015,02,15,05,11,2.80
2015,02,15,05,12,2.80
2015,02,15,05,13,2.90
2015,02,15,05,14,3.00
2015,02,15,05,15,3.00
2015,02,15,05,16,3.10
2015,02,15,05,17,3.10
2015,02,15,05,18,3.20
2015,02,15,05,19,3.20
2015,02,15,05,20,3.20
2015,02,15,05,21,3.20
2015,02,15,05,22,3.20
2015,02,15,05,23,3.30
2015,02,15,05,24,3.30
2015,02,15,05,25,3.30
2015,02,15,05,26,3.30
2015,02,15,05,27,3.30
2015,02,15,05,28,3.40
2015,02,15,05,29,3.40
2015,02,15,05,30,3.40
2015,02,15,05,31,3.50
2015,02,15,05,32,3.50
2015,02,15,05,33,3.50
2015,02,15,05,34,3.50
2015,02,15,05,35,3.60
2015,02,15,05,36,3.60
2015,02,15,05,37,3.60
2015,02,15,05,38,3.60
2015,02,15,05,39,3.60
2015,02,15,05,40,3.60
2015,02,15,05,41,3.60
2015,02,15,05,42,3.60
2015,02,15,05,43,3.60
2015,02,15,05,44,3.60
2015,02,15,05,45,3.60
2015,02,15,05,46,3.60
2015,02,15,05,47,3.60
2015,02,15,05,48,3.60
2015,02,15,05,49,3.60
2015,02,15,05,50,3.60
2015,02,15,05,51,3.60
2015,02,15,05,52,3.60
2015,02,15,05,53,3.60
2015,02,15,05,54,3.60
2015,02,15,05,55,3.50
2015,02,15,05,56,3.50
2015,02,15,05,57,3.50
2015,02,15,05,58,3.50
2015,02,15,05,59,3.50
2015,02,15,06,00,3.50
2015,02,15,06,01,3.60
2015,02,15,06,02,3.60
2015,02,15,06,03,3.60
2015,02,15,06,04,3.70
2015,02,15,06,05,3.70
2015,02,15,06,06,3.70
2015,02,15,06,07,3.70
2015,02,15,06,08,3.70
2015,02,15,06,09,3.80
2015,02,15,06,10,3.80
2015,02,15,06,11,3.80
2015,02,15,06,12,3.90
2015,02,15,06,13,3.90
2015,02,15,06,14,4.00
2015,02,15,06,15,4.00
2015,02,15,06,16,4.10
2015,02,15,06,17,4.10
2015,02,15,06,18,4.20
2015,02,15,06,19,4.20
2015,02,15,06,20,4.20
2015,02,15,06,21,4.20
2015,02,15,06,22,4.20
2015,02,15,06,23,4.30
2015,02,15,06,24,4.30
2015,02,15,06,25,4.30
2015,02,15,06,26,4.30
2015,02,15,06,27,4.30
2015,02,15,06,28,4.30
2015,02,15,06,29,4.30
2015,02,15,06,30,4.30
2015,02,15,06,31,4.30
2015,02,15,06,32,4.30
2015,02,15,06,33,4.30
2015,02,15,06,34,4.30
2015,02,15,06,35,4.30
2015,02,15,06,36,4.30
2015,02,15,06,37,4.30
2015,02,15,06,38,4.30
2015,02,15,06,39,4.30
2015,02,15,06,40,4.30
2015,02,15,06,41,4.30
2015,02,15,06,42,4.40
2015,02,15,06,43,4.30
2015,02,15,06,44,4.30
2015,02,15,06,45,4.30
2015,02,15,06,46,4.30
2015,02,15,06,47,4.30
2015,02,15,06,48,4.30
2015,02,15,06,49,4.30
2015,02,15,06,50,4.30
2015,02,15,06,51,4.30
2015,02,15,06,52,4.30
2015,02,15,06,53,4.30
2015,02,15,06,54,4.30
2015,02,15,06,55,4.30
2015,02,15,06,56,4.30
2015,02,15,06,57,4.30
2015,02,15,06,58,4.30
2015,02,15,06,59,4.30
2015,02,15,07,00,4.30
2015,02,15,07,01,4.30
2015,02,15,07,02,4.30
2015,02,15,07,03,4.30
2015,02,15,07,04,4.30
2015,02,15,07,05,4.30
2015,02,15,07,06,4.30
2015,02,15,07,07,4.30
2015,02,15,07,08,4.30
2015,02,15,07,09,4.30
2015,02,15,07,10,4.30
2015,02,15,07,11,4.30
2015,02,15,07,12,4.30
2015,02,15,07,13,4.30
2015,02,15,07,14,4.30
2015,02,15,07,15,4.20
2015,02,15,07,16,4.20
2015,02,15,07,17,4.20
2015,02,15,07,18,4.20
2015,02,15,07,19,4.20
2015,02,15,07,20,4.20
2015,02,15,07,21,4.20
2015,02,15,07,22,4.20
2015,02,15,07,23,4.20
2015,02,15,07,24,4.20
2015,02,15,07,25,4.20
2015,02,15,07,26,4.20
2015,02,15,07,27,4.20
2015,02,15,07,28,4.20
2015,02,15,07,29,4.20
2015,02,15,07,30,4.20
2015,02,15,07,31,4.20
2015,02,15,07,32,4.20
2015,02,15,07,33,4.20
2015,02,15,07,34,4.20
2015,02,15,07,35,4.20
2015,02,15,07,36,4.10
2015,02,15,07,37,4.10
2015,02,15,07,38,4.10
2015,02,15,07,39,4.10
2015,02,15,07,40,4.10
2015,02,15,07,41,4.10
2015,02,15,07,42,4.10
2015,02,15,07,43,4.10
2015,02,15,07,44,4.10
2015,02,15,07,45,4.10
2015,02,15,07,46,4.10
2015,02,15,07,47,4.10
2015,02,15,07,48,4.10
2015,02,15,07,49,4.10
2015,02,15,07,50,4.10
2015,02,15,07,51,4.10
2015,02,15,07,52,4.10
2015,02,15,07,53,4.10
2015,02,15,07,54,4.10
2015,02,15,07,55,4.10
2015,02,15,07,56,4.10
2015,02,15,07,57,4.10
2015,02,15,07,58,4.10
2015,02,15,07,59,4.10
2015,02,15,08,00,4.10
2015,02,15,08,01,4.00
2015,02,15,08,02,4.00
2015,02,15,08,03,4.00
2015,02,15,08,04,4.00
2015,02,15,08,05,4.00
2015,02,15,08,06,4.00
2015,02,15,08,07,4.00
2015,02,15,08,08,4.00
2015,02,15,08,09,4.00
2015,02,15,08,10,4.00
2015,02,15,08,11,4.00
2015,02,15,08,12,4.00
2015,02,15,08,13,4.00
2015,02,15,08,14,4.00
2015,02,15,08,15,4.00
2015,02,15,08,16,4.00
2015,02,15,08,17,4.00
2015,02,15,08,18,4.10
2015,02,15,08,19,4.10
2015,02,15,08,20,4.10
2015,02,15,08,21,4.10
2015,02,15,08,22,4.10
2015,02,15,08,23,4.10
2015,02,15,08,24,4.10
2015,02,15,08,25,4.10
2015,02,15,08,26,4.10
2015,02,15,08,27,4.20
2015,02,15,08,28,4.20
2015,02,15,08,29,4.20
2015,02,15,08,30,4.20
2015,02,15,08,31,4.20
2015,02,15,08,32,4.20
2015,02,15,08,33,4.30
2015,02,15,08,34,4.30
2015,02,15,08,35,4.30
2015,02,15,08,36,4.30
2015,02,15,08,37,4.30
2015,02,15,08,38,4.40
2015,02,15,08,39,4.40
2015,02,15,08,40,4.40
2015,02,15,08,41,4.40
2015,02,15,08,42,4.40
2015,02,15,08,43,4.40
2015,02,15,08,44,4.40
2015,02,15,08,45,4.50
2015,02,15,08,46,4.50
2015,02,15,08,47,4.50
2015,02,15,08,48,4.50
2015,02,15,08,49,4.50
2015,02,15,08,50,4.50
2015,02,15,08,51,4.50
2015,02,15,08,52,4.50
2015,02,15,08,53,4.50
2015,02,15,08,54,4.50
2015,02,15,08,55,4.50
2015,02,15,08,56,4.50
2015,02,15,08,57,4.50
2015,02,15,08,58,4.50
2015,02,15,08,59,4.50
2015,02,15,09,00,4.50
2015,02,15,09,01,4.50
2015,02,15,09,02,4.50
2015,02,15,09,03,4.50
2015,02,15,09,04,4.50
2015,02,15,09,05,4.50
2015,02,15,09,06,4.50
2015,02,15,09,07,4.50
2015,02,15,09,08,4.50
2015,02,15,09,09,4.50
2015,02,15,09,10,4.50
2015,02,15,09,11,4.50
2015,02,15,09,12,4.50
2015,02,15,09,13,4.50
2015,02,15,09,14,4.60
2015,02,15,09,15,4.60
2015,02,15,09,16,4.60
2015,02,15,09,17,4.60
2015,02,15,09,18,4.70
2015,02,15,09,19,4.70
2015,02,15,09,20,4.70
2015,02,15,09,21,4.70
2015,02,15,09,22,4.70
2015,02,15,09,23,4.70
2015,02,15,09,24,4.70
2015,02,15,09,25,4.70
2015,02,15,09,26,4.70
2015,02,15,09,27,4.70
2015,02,15,09,28,4.70
2015,02,15,09,29,4.70
2015,02,15,09,30,4.80
2015,02,15,09,31,4.80
2015,02,15,09,32,4.80
2015,02,15,09,33,4.80
2015,02,15,09,34,4.90
2015,02,15,09,35,4.90
2015,02,15,09,36,4.90
2015,02,15,09,37,4.90
2015,02,15,09,38,5.00
2015,02,15,09,39,5.00
2015,02,15,09,40,5.00
2015,02,15,09,41,5.00
2015,02,15,09,42,5.10
2015,02,15,09,43,5.10
2015,02,15,09,44,5.10
2015,02,15,09,45,5.10
2015,02,15,09,46,5.10
2015,02,15,09,47,5.10
2015,02,15,09,48,5.10
2015,02,15,09,49,5.20
2015,02,15,09,50,5.20
2015,02,15,09,51,5.20
2015,02,15,09,52,5.20
2015,02,15,09,53,5.30
2015,02,15,09,54,5.30
2015,02,15,09,55,5.30
2015,02,15,09,56,5.30
2015,02,15,09,57,5.40
2015,02,15,09,58,5.40
2015,02,15,09,59,5.40
2015,02,15,10,00,5.40
2015,02,15,10,01,5.40
2015,02,15,10,02,5.40
2015,02,15,10,03,5.30
2015,02,15,10,04,5.40
2015,02,15,10,05,5.40
2015,02,15,10,06,5.40
2015,02,15,10,07,5.50
2015,02,15,10,08,5.50
2015,02,15,10,09,5.60
2015,02,15,10,10,5.60
2015,02,15,10,11,5.60
2015,02,15,10,12,5.70
2015,02,15,10,13,5.70
2015,02,15,10,14,5.70
2015,02,15,10,15,5.70
2015,02,15,10,16,5.60
2015,02,15,10,17,5.60
2015,02,15,10,18,5.60
2015,02,15,10,19,5.60
2015,02,15,10,20,5.50
2015,02,15,10,21,5.50
2015,02,15,10,22,5.50
2015,02,15,10,23,5.60
2015,02,15,10,24,5.60
2015,02,15,10,25,5.60
2015,02,15,10,26,5.70
2015,02,15,10,27,5.70
2015,02,15,10,28,5.80
2015,02,15,10,29,5.80
2015,02,15,10,30,5.80
2015,02,15,10,31,5.80
2015,02,15,10,32,5.80
2015,02,15,10,33,5.80
2015,02,15,10,34,5.80
2015,02,15,10,35,5.80
2015,02,15,10,36,5.80
2015,02,15,10,37,5.80
2015,02,15,10,38,5.80
2015,02,15,10,39,5.80
2015,02,15,10,40,5.80
2015,02,15,10,41,5.80
2015,02,15,10,42,5.80
2015,02,15,10,43,5.70
2015,02,15,10,44,5.70
2015,02,15,10,45,5.70
2015,02,15,10,46,5.70
2015,02,15,10,47,5.70
2015,02,15,10,48,5.80
2015,02,15,10,49,5.80
2015,02,15,10,50,5.80
2015,02,15,10,51,5.80
2015,02,15,10,52,5.80
2015,02,15,10,53,5.80
2015,02,15,10,54,5.80
2015,02,15,10,55,5.90
2015,02,15,10,56,5.90
2015,02,15,10,57,5.90
2015,02,15,10,58,5.90
2015,02,15,10,59,5.90
2015,02,15,11,00,6.00
2015,02,15,11,01,6.00
2015,02,15,11,02,6.10
2015,02,15,11,03,6.10
2015,02,15,11,04,6.10
2015,02,15,11,05,6.10
2015,02,15,11,06,6.10
2015,02,15,11,07,6.20
2015,02,15,11,08,6.20
2015,02,15,11,09,6.20
2015,02,15,11,10,6.30
2015,02,15,11,11,6.30
2015,02,15,11,12,6.40
2015,02,15,11,13,6.40
2015,02,15,11,14,6.40
2015,02,15,11,15,6.50
2015,02,15,11,16,6.50
2015,02,15,11,17,6.50
2015,02,15,11,18,6.50
2015,02,15,11,19,6.60
2015,02,15,11,20,6.60
2015,02,15,11,21,6.60
2015,02,15,11,22,6.70
2015,02,15,11,23,6.70
2015,02,15,11,24,6.80
2015,02,15,11,25,6.80
2015,02,15,11,26,6.80
2015,02,15,11,27,6.80
2015,02,15,11,28,6.70
2015,02,15,11,29,6.70
2015,02,15,11,30,6.70
2015,02,15,11,31,6.70
2015,02,15,11,32,6.70
2015,02,15,11,33,6.80
2015,02,15,11,34,6.80
2015,02,15,11,35,6.80
2015,02,15,11,36,6.80
2015,02,15,11,37,6.80
2015,02,15,11,38,6.90
2015,02,15,11,39,6.90
2015,02,15,11,40,6.90
2015,02,15,11,41,6.90
2015,02,15,11,42,6.90
2015,02,15,11,43,6.90
2015,02,15,11,44,7.00
2015,02,15,11,45,7.00
2015,02,15,11,46,7.10
2015,02,15,11,47,7.20
2015,02,15,11,48,7.20
2015,02,15,11,49,7.30
2015,02,15,11,50,7.30
2015,02,15,11,51,7.40
2015,02,15,11,52,7.40
2015,02,15,11,53,7.40
2015,02,15,11,54,7.40
2015,02,15,11,55,7.40
2015,02,15,11,56,7.50
2015,02,15,11,57,7.50
2015,02,15,11,58,7.50
2015,02,15,11,59,7.60
2015,02,15,12,00,7.60
2015,02,15,12,01,7.60
2015,02,15,12,02,7.70
2015,02,15,12,03,7.70
2015,02,15,12,04,7.70
2015,02,15,12,05,7.70
2015,02,15,12,06,7.70
2015,02,15,12,07,7.70
2015,02,15,12,08,7.70
2015,02,15,12,09,7.80
2015,02,15,12,10,7.80
2015,02,15,12,11,7.90
2015,02,15,12,12,7.90
2015,02,15,12,13,8.00
2015,02,15,12,14,8.00
2015,02,15,12,15,8.00
2015,02,15,12,16,8.00
2015,02,15,12,17,8.10
2015,02,15,12,18,8.10
2015,02,15,12,19,8.10
2015,02,15,12,20,8.10
2015,02,15,12,21,8.10
2015,02,15,12,22,8.10
2015,02,15,12,23,8.10
2015,02,15,12,24,8.10
2015,02,15,12,25,8.20
2015,02,15,12,26,8.20
2015,02,15,12,27,8.20
2015,02,15,12,28,8.30
2015,02,15,12,29,8.30
2015,02,15,12,30,8.30
2015,02,15,12,31,8.40
2015,02,15,12,32,8.40
2015,02,15,12,33,8.40
2015,02,15,12,34,8.40
2015,02,15,12,35,8.40
2015,02,15,12,36,8.40
2015,02,15,12,37,8.50
2015,02,15,12,38,8.50
2015,02,15,12,39,8.50
2015,02,15,12,40,8.60
2015,02,15,12,41,8.60
2015,02,15,12,42,8.60
2015,02,15,12,43,8.70
2015,02,15,12,44,8.70
2015,02,15,12,45,8.70
2015,02,15,12,46,8.80
2015,02,15,12,47,8.80
2015,02,15,12,48,8.80
2015,02,15,12,49,8.80
2015,02,15,12,50,8.90
2015,02,15,12,51,8.90
2015,02,15,12,52,8.90
2015,02,15,12,53,8.90
2015,02,15,12,54,8.90
2015,02,15,12,55,8.90
2015,02,15,12,56,8.90
2015,02,15,12,57,9.00
2015,02,15,12,58,9.00
2015,02,15,12,59,9.10
2015,02,15,13,00,9.10
2015,02,15,13,01,9.10
2015,02,15,13,02,9.20
2015,02,15,13,03,9.20
2015,02,15,13,04,9.20
2015,02,15,13,05,9.20
2015,02,15,13,06,9.10
2015,02,15,13,07,9.10
2015,02,15,13,08,9.10
2015,02,15,13,09,9.10
2015,02,15,13,10,9.00
2015,02,15,13,11,9.00
2015,02,15,13,12,9.00
2015,02,15,13,13,8.90
2015,02,15,13,14,8.90
2015,02,15,13,15,8.90
2015,02,15,13,16,8.90
2015,02,15,13,17,8.90
2015,02,15,13,18,8.90
2015,02,15,13,19,8.90
2015,02,15,13,20,8.90
2015,02,15,13,21,8.90
2015,02,15,13,22,8.90
2015,02,15,13,23,8.90
2015,02,15,13,24,8.90
2015,02,15,13,25,8.90
2015,02,15,13,26,9.00
2015,02,15,13,27,9.10
2015,02,15,13,28,9.10
2015,02,15,13,29,9.10
2015,02,15,13,30,9.20
2015,02,15,13,31,9.20
2015,02,15,13,32,9.20
2015,02,15,13,33,9.20
2015,02,15,13,34,9.20
2015,02,15,13,35,9.20
2015,02,15,13,36,9.20
2015,02,15,13,37,9.20
2015,02,15,13,38,9.20
2015,02,15,13,39,9.10
2015,02,15,13,40,9.10
2015,02,15,13,41,9.20
2015,02,15,13,42,9.20
2015,02,15,13,43,9.20
2015,02,15,13,44,9.30
2015,02,15,13,45,9.40
2015,02,15,13,46,9.40
2015,02,15,13,47,9.50
2015,02,15,13,48,9.60
2015,02,15,13,49,9.60
2015,02,15,13,50,9.60
2015,02,15,13,51,9.60
2015,02,15,13,52,9.70
2015,02,15,13,53,9.70
2015,02,15,13,54,9.70
2015,02,15,13,55,9.70
2015,02,15,13,56,9.70
2015,02,15,13,57,9.70
2015,02,15,13,58,9.70
2015,02,15,13,59,9.70
2015,02,15,14,00,9.80
2015,02,15,14,01,9.80
2015,02,15,14,02,9.70
2015,02,15,14,03,9.70
2015,02,15,14,04,9.70
2015,02,15,14,05,9.70
2015,02,15,14,06,9.70
2015,02,15,14,07,9.70
2015,02,15,14,08,9.80
2015,02,15,14,09,9.80
2015,02,15,14,10,9.70
2015,02,15,14,11,9.70
2015,02,15,14,12,9.70
2015,02,15,14,13,9.80
2015,02,15,14,14,9.80
2015,02,15,14,15,9.80
2015,02,15,14,16,9.80
2015,02,15,14,17,9.80
2015,02,15,14,18,9.80
2015,02,15,14,19,9.80
2015,02,15,14,20,9.80
2015,02,15,14,21,9.80
2015,02,15,14,22,9.70
2015,02,15,14,23,9.70
2015,02,15,14,24,9.70
2015,02,15,14,25,9.70
2015,02,15,14,26,9.70
2015,02,15,14,27,9.70
2015,02,15,14,28,9.60
2015,02,15,14,29,9.60
2015,02,15,14,30,9.60
2015,02,15,14,31,9.60
2015,02,15,14,32,9.60
2015,02,15,14,33,9.60
2015,02,15,14,34,9.60
2015,02,15,14,35,9.60
2015,02,15,14,36,9.50
2015,02,15,14,37,9.50
2015,02,15,14,38,9.50
2015,02,15,14,39,9.50
2015,02,15,14,40,9.40
2015,02,15,14,41,9.40
2015,02,15,14,42,9.40
2015,02,15,14,43,9.30
2015,02,15,14,44,9.30
2015,02,15,14,45,9.30
2015,02,15,14,46,9.30
2015,02,15,14,47,9.30
2015,02,15,14,48,9.30
2015,02,15,14,49,9.30
2015,02,15,14,50,9.30
2015,02,15,14,51,9.30
2015,02,15,14,52,9.30
2015,02,15,14,53,9.30
2015,02,15,14,54,9.30
2015,02,15,14,55,9.30
2015,02,15,14,56,9.30
2015,02,15,14,57,9.30
2015,02,15,14,58,9.30
2015,02,15,14,59,9.30
2015,02,15,15,00,9.40
2015,02,15,15,01,9.40
2015,02,15,15,02,9.40
2015,02,15,15,03,9.40
2015,02,15,15,04,9.40
2015,02,15,15,05,9.40
2015,02,15,15,06,9.40
2015,02,15,15,07,9.40
2015,02,15,15,08,9.40
2015,02,15,15,09,9.40
2015,02,15,15,10,9.30
2015,02,15,15,11,9.30
2015,02,15,15,12,9.30
2015,02,15,15,13,9.30
2015,02,15,15,14,9.30
2015,02,15,15,15,9.30
2015,02,15,15,16,9.30
2015,02,15,15,17,9.30
2015,02,15,15,18,9.30
2015,02,15,15,19,9.30
2015,02,15,15,20,9.30
2015,02,15,15,21,9.40
2015,02,15,15,22,9.40
2015,02,15,15,23,9.40
2015,02,15,15,24,9.40
2015,02,15,15,25,9.40
2015,02,15,15,26,9.40
2015,02,15,15,27,9.50
2015,02,15,15,28,9.50
2015,02,15,15,29,9.50
2015,02,15,15,30,9.50
2015,02,15,15,31,9.50
2015,02,15,15,32,9.50
2015,02,15,15,33,9.50
2015,02,15,15,34,9.50
2015,02,15,15,35,9.60
2015,02,15,15,36,9.60
2015,02,15,15,37,9.60
2015,02,15,15,38,9.60
2015,02,15,15,39,9.70
2015,02,15,15,40,9.70
2015,02,15,15,41,9.70
2015,02,15,15,42,9.70
2015,02,15,15,43,9.70
2015,02,15,15,44,9.70
2015,02,15,15,45,9.70
2015,02,15,15,46,9.70
2015,02,15,15,47,9.70
2015,02,15,15,48,9.70
2015,02,15,15,49,9.70
2015,02,15,15,50,9.70
2015,02,15,15,51,9.70
2015,02,15,15,52,9.70
2015,02,15,15,53,9.70
2015,02,15,15,54,9.70
2015,02,15,15,55,9.70
2015,02,15,15,56,9.70
2015,02,15,15,57,9.70
2015,02,15,15,58,9.70
2015,02,15,15,59,9.70
2015,02,15,16,00,9.80
2015,02,15,16,01,9.80
2015,02,15,16,02,9.80
2015,02,15,16,03,9.80
2015,02,15,16,04,9.80
2015,02,15,16,05,9.80
2015,02,15,16,06,9.80
2015,02,15,16,07,9.80
2015,02,15,16,08,9.80
2015,02,15,16,09,9.80
2015,02,15,16,10,9.80
2015,02,15,16,11,9.80
2015,02,15,16,12,9.80
2015,02,15,16,13,9.80
2015,02,15,16,14,9.80
2015,02,15,16,15,9.80
2015,02,15,16,16,9.80
2015,02,15,16,17,9.80
2015,02,15,16,18,9.80
2015,02,15,16,19,9.80
2015,02,15,16,20,9.80
2015,02,15,16,21,9.80
2015,02,15,16,22,9.80
2015,02,15,16,23,9.80
2015,02,15,16,24,9.80
2015,02,15,16,25,9.80
2015,02,15,16,26,9.80
2015,02,15,16,27,9.80
2015,02,15,16,28,9.80
2015,02,15,16,29,9.80
2015,02,15,16,30,9.80
2015,02,15,16,31,9.80
2015,02,15,16,32,9.80
2015,02,15,16,33,9.80
2015,02,15,16,34,9.80
2015,02,15,16,35,9.80
2015,02,15,16,36,9.80
2015,02,15,16,37,9.80
2015,02,15,16,38,9.80
2015,02,15,16,39,9.80
2015,02,15,16,40,9.80
2015,02,15,16,41,9.90
2015,02,15,16,42,9.90
2015,02,15,16,43,9.90
2015,02,15,16,44,10.00
2015,02,15,16,45,10.00
2015,02,15,16,46,10.10
2015,02,15,16,47,10.10
2015,02,15,16,48,10.10
2015,02,15,16,49,10.10
2015,02,15,16,50,10.10
2015,02,15,16,51,10.20
2015,02,15,16,52,10.20
2015,02,15,16,53,10.20
2015,02,15,16,54,10.20
2015,02,15,16,55,10.20
2015,02,15,16,56,10.20
2015,02,15,16,57,10.20
2015,02,15,16,58,10.20
2015,02,15,16,59,10.20
2015,02,15,17,00,10.20
2015,02,15,17,01,10.20
2015,02,15,17,02,10.30
2015,02,15,17,03,10.30
2015,02,15,17,04,10.30
2015,02,15,17,05,10.30
2015,02,15,17,06,10.30
2015,02,15,17,07,10.30
2015,02,15,17,08,10.30
2015,02,15,17,09,10.20
2015,02,15,17,10,10.20
2015,02,15,17,11,10.20
2015,02,15,17,12,10.10
2015,02,15,17,13,10.10
2015,02,15,17,14,10.00
2015,02,15,17,15,9.90
2015,02,15,17,16,9.90
2015,02,15,17,17,9.80
2015,02,15,17,18,9.80
2015,02,15,17,19,9.70
2015,02,15,17,20,9.70
2015,02,15,17,21,9.70
2015,02,15,17,22,9.60
2015,02,15,17,23,9.60
2015,02,15,17,24,9.50
2015,02,15,17,25,9.50
2015,02,15,17,26,9.40
2015,02,15,17,27,9.40
2015,02,15,17,28,9.30
2015,02,15,17,29,9.20
2015,02,15,17,30,9.20
2015,02,15,17,31,9.10
2015,02,15,17,32,9.00
2015,02,15,17,33,8.90
2015,02,15,17,34,8.90
2015,02,15,17,35,8.80
2015,02,15,17,36,8.80
2015,02,15,17,37,8.70
2015,02,15,17,38,8.60
2015,02,15,17,39,8.60
2015,02,15,17,40,8.60
2015,02,15,17,41,8.50
2015,02,15,17,42,8.50
2015,02,15,17,43,8.40
2015,02,15,17,44,8.40
2015,02,15,17,45,8.30
2015,02,15,17,46,8.30
2015,02,15,17,47,8.20
2015,02,15,17,48,8.10
2015,02,15,17,49,8.10
2015,02,15,17,50,8.00
2015,02,15,17,51,7.90
2015,02,15,17,52,7.90
2015,02,15,17,53,7.80
2015,02,15,17,54,7.80
2015,02,15,17,55,7.70
2015,02,15,17,56,7.70
2015,02,15,17,57,7.70
2015,02,15,17,58,7.60
2015,02,15,17,59,7.60
2015,02,15,18,00,7.50
2015,02,15,18,01,7.50
2015,02,15,18,02,7.40
2015,02,15,18,03,7.40
2015,02,15,18,04,7.40
2015,02,15,18,05,7.30